This is the latest recevied weather packets stored in our database for station/object JF2ZGN-13. If no packets are shown the sender has not sent any weather packets the latest 10 day(s).
| Time | Temp. | Humidity | Pressure | Rain* | Wind** | Luminosity | Snow |
|---|---|---|---|---|---|---|---|
| 1777856121 | 15° C | 69% | 892.6 hPa | 20.07 mm | - | - | - |
| 1777855521 | 15° C | 73% | 892.6 hPa | 20.07 mm | - | - | - |
| 1777854921 | 15° C | 68% | 892.6 hPa | 20.07 mm | - | - | - |
| 1777854320 | 15° C | 62% | 892.7 hPa | 20.07 mm | - | - | - |
| 1777853719 | 15° C | 50% | 892.1 hPa | 20.07 mm | - | - | - |
| 1777853120 | 14.44° C | 58% | 892.1 hPa | 20.07 mm | - | - | - |
| 1777852519 | 14.44° C | 55% | 892.2 hPa | 20.07 mm | - | - | - |
| 1777851918 | 14.44° C | 57% | 892.5 hPa | 20.07 mm | - | - | - |
| 1777851318 | 14.44° C | 53% | 892.1 hPa | 20.07 mm | - | - | - |
| 1777850718 | 14.44° C | 59% | 892 hPa | 20.07 mm | - | - | - |
| 1777850117 | 14.44° C | 61% | 892.7 hPa | 20.07 mm | - | - | - |
| 1777849516 | 14.44° C | 57% | 892.5 hPa | 20.07 mm | - | - | - |
| 1777848916 | 14.44° C | 56% | 892.8 hPa | 20.07 mm | - | - | - |
| 1777848316 | 15° C | 50% | 893.1 hPa | 20.07 mm | - | - | - |
| 1777847715 | 15° C | 50% | 893.1 hPa | 20.07 mm | - | - | - |
| 1777847114 | 15° C | 41% | 892.8 hPa | 19.81 mm | - | - | - |
| 1777846515 | 15° C | 38% | 892.8 hPa | 19.81 mm | - | - | - |
| 1777845914 | 15.56° C | 43% | 892.8 hPa | 19.81 mm | - | - | - |
| 1777845314 | 15.56° C | 53% | 892.6 hPa | 19.81 mm | - | - | - |
| 1777844713 | 15.56° C | 61% | 893.3 hPa | 19.56 mm | - | - | - |
| 1777844113 | 16.11° C | 68% | 893.1 hPa | 19.3 mm | - | - | - |
| 1777843512 | 16.67° C | 65% | 893.2 hPa | 19.3 mm | - | - | - |
| 1777842912 | 16.67° C | 62% | 892.9 hPa | 18.8 mm | - | - | - |
| 1777842311 | 16.67° C | 70% | 893.1 hPa | 18.29 mm | - | - | - |
| 1777841710 | 16.67° C | 66% | 893.2 hPa | 17.53 mm | - | - | - |
* Rain since midnight (hover to see other rain measurements)
** Current wind speed in m/s (hover to see current wind gust speed)